STARLINK-1704, 47625

Orbit data source: Space-Track

STARLINK-1704, 47625 is a payload satellite owned by SpaceX/Seattle (US) in LEO that was launched on Tue, 16 Feb 2021 UTC via an FALCON 9 launch vehicle from the Air Force Eastern Test Range (AFETR). Payload-class satellites include a variety of spacecraft equipped with specific instruments for various scientific and technological missions. These include communications satellites like Starlink; space stations such as the ISS; scientific satellites like the Hubble; Earth observation satellites from companies like Planet Labs, Umbra, and HawkEye 360; GPS; miniature CubeSats for education and research; and military/defense satellites.

Loading next visibility...
Identifier
47625, 2021-012F
Orbit
LEO
Country
Flag of USUS
Related business
Manufacturer
SpaceX/Seattle
Mission
Partially operational Commercial Communications
Bus & Motor
STARLINK, Unknown motor
Mass
260 kg wet, ~248 kg dry
Launch date (UTC)
2021-02-16 (5 years ago)
Launch vehicle
FALCON 9
Launch site
Air Force Eastern Test Range (AFETR)
Object type
Payload
Rocket body
Debris
Shape & HBR
Box + 1 Pan, 10.1 m
Radar Cross Section
13.562 m², Large (>1 m²)

Expand to show TLE details & history
Last TLE update: 2 days ago

TLE from 2 days ago
0 STARLINK-1704
1 47625U 21012F   26171.34086421  .00211388  00000-0  19282-2 0  9992
2 47625  53.0442 288.8382 0003133 214.2451 145.8363 15.66699897296049
Epoch: 2026-06-20T08:10Z
TLE epoch observation values (Epoch: 2026-06-20T08:10:50.667Z)
Latitude
0.00001°
Longitude
-102.42979°
Altitude
371.005 km
Speed
7.687 km/s
True Right ascension
19h 15m 21s
True Declination
0° 00' 00"
Sunlit
Object was in full shadow at epoch
Visualization orbit readout
Latitude
Unknown
Longitude
Unknown
Altitude
Unknown
Speed
Unknown
Apparent Right ascension
Unknown
Apparent Declination
Unknown
Sunlit
N/A
Visualization observer readout
Local Sidereal Time
21:42:17
Azimuth
Unknown
Elevation
Unknown
Doppler factor
Unknown
Orbital elements
Apogee altitude
370.747 km
Perigee altitude
366.52 km
Semi-major axis
6,746.771 km
Eccentricity
0.00031
Inclination
53.0442°
RAAN
288.8382°
Arg. of periapsis
214.2451°
True anomaly
145.85645°
Mean anomaly
145.8363°
Eccentric anomaly
145.84638°
Mean motion
3.91651 °/min
Orbital period
91.92 mins
BSTAR
0.0019282
Loading maneuver chart data...
Computing Atmospheric mass density...

Documentation

Showing up to 5 results
|